Other Public Products
Issued by NWS Charleston, SC

Home | Current Version | Previous Version | Text Only | Print | Product List | Glossary On
Versions: 1 2 3 4 5 6 7 8 9 10 11 12 13 14 15 16 17 18 19 20 21 22 23 24 25 26 27 28 29 30 31 32 33 34 35 36 37 38 39 40 41 42 43 44 45 46 47 48 49 50
000
FPUS82 KCHS 241812
OPUCHS

TEST...KCHS/KSAV Gateway Observations...TEST
National Weather Service Charleston SC
100 PM EST SAT FEB 24 2018

NOTE: "fair" indicates few or no clouds below 12,000 feet with no
significant weather and/or obstructions to visibility.

SCZ050-WAZ558-NCZ071-TXZ119-213-PAZ071-DCZ001-FLZ074-172-MI076-
NYZ176-178-MAZ016-IL014-TNZ027-NJZ106-GAZ044-MD014-241900-

...Gateway Observations for Charleston International...

CITY           SKY/WX    TMP DP  RH WIND       PRES   REMARKS
Chas Airport   FAIR      82  62  50 S18       30.20F
6HR MIN TEMP:  61; 6HR MAX TEMP:  82;

Seattle        PTSUNNY   40  34  79 N7        30.05R WCI  35
6HR MIN TEMP:  36; 6HR MAX TEMP:  40; 6HR PCP: TRACE;

Charlotte      FAIR      75  63  66 SW15      30.17F
6HR MIN TEMP:  59; 6HR MAX TEMP:  76;

Dallas DFW     PTSUNNY   51  48  89 NW12      29.87R
6HR MIN TEMP:  48; 6HR MAX TEMP:  64; 6HR PCP:  1.08;

Dallas Love    LGT RAIN  49  48  97 NW12      29.89R
6HR MIN TEMP:  49; 6HR MAX TEMP:  60; 6HR PCP:  0.84;

Philladelphia  CLOUDY    48  45  89 CALM      30.16F FOG
6HR MIN TEMP:  44; 6HR MAX TEMP:  48; 6HR PCP: TRACE;

Wash National  CLOUDY    53  51  93 N5        30.15R
6HR MIN TEMP:  50; 6HR MAX TEMP:  53;

Baltimore      LGT RAIN  49  48  97 NE7       30.13F FOG
6HR MIN TEMP:  44; 6HR MAX TEMP:  49; 6HR PCP:  0.01;

Miami          PTSUNNY   80  68  66 E18       30.18F
6HR MIN TEMP:  73; 6HR MAX TEMP:  82; 6HR PCP: TRACE;

Detroit        CLOUDY    39  31  72 E12       30.19F WCI  32
6HR MIN TEMP:  38; 6HR MAX TEMP:  40;

Newark         LGT RAIN  54  42  64 N8        30.14F
6HR MIN TEMP:  43; 6HR MAX TEMP:  56; 6HR PCP: TRACE;

Laguardia      CLOUDY    53  39  59 NW6       30.15F
6HR MIN TEMP:  47; 6HR MAX TEMP:  54;

J F K          CLOUDY    49  45  86 SW9       30.16F
6HR MIN TEMP:  44; 6HR MAX TEMP:  54; 6HR PCP: TRACE;

Boston Logan   PTSUNNY   53  35  50 NW12      30.09S
6HR MIN TEMP:  44; 6HR MAX TEMP:  55;

Ft. Lauderdale FAIR      81  69  67 E16G28    30.18F
6HR MIN TEMP:  74; 6HR MAX TEMP:  81; 6HR PCP:  0.01;

Chicago O`Hare CLOUDY    39  31  72 E14       30.03F WCI  31
6HR MIN TEMP:  34; 6HR MAX TEMP:  39;

Chicago Midway CLOUDY    39  32  76 E12G21    30.03F WCI  32
6HR MIN TEMP:  35; 6HR MAX TEMP:  39;

Houston Bush   CLOUDY    79  66  64 S20G30    29.94F
6HR MIN TEMP:  73; 6HR MAX TEMP:  79;

Houston Hobby  PTSUNNY   78  69  73 S21G31    29.94F
6HR MIN TEMP:  72; 6HR MAX TEMP:  79;

Nashville      PTSUNNY   76  61  59 S16       29.99F
6HR MIN TEMP:  62; 6HR MAX TEMP:  76; 6HR PCP: TRACE;

Atlanta        PTSUNNY   77  60  55 S20G29    30.15F
6HR MIN TEMP:  63; 6HR MAX TEMP:  77;


$$

GAZ044-118-TXZ119-213-NCZ071-DCZ001-MDZ014-506-PAZ021-071-NJZ106-
NYZ176-178-MAZ106-OHZ011-021-055-MIZ076-KYZ091-ILZ014-INZ047-
MNZ060-ONZ431-241900-

...Gateway Observations for Savannah International...

CITY           SKY/WX    TMP DP  RH WIND       PRES   REMARKS
Savannah Arpt  FAIR      81  60  48 SW9       30.20F
6HR MIN TEMP:  59; 6HR MAX TEMP:  81;

Atlanta        PTSUNNY   77  60  55 S20G29    30.15F
6HR MIN TEMP:  63; 6HR MAX TEMP:  77;

Charlotte      FAIR      75  63  66 SW15      30.17F
6HR MIN TEMP:  59; 6HR MAX TEMP:  76;

Dallas DFW     PTSUNNY   51  48  89 NW12      29.87R
6HR MIN TEMP:  48; 6HR MAX TEMP:  64; 6HR PCP:  1.08;

Houston Bush   CLOUDY    79  66  64 S20G30    29.94F
6HR MIN TEMP:  73; 6HR MAX TEMP:  79;

Wash National  CLOUDY    53  51  93 N5        30.15R
6HR MIN TEMP:  50; 6HR MAX TEMP:  53;

Wash Dulles    LGT RAIN  51  50  96 NE7       30.14F
6HR MIN TEMP:  48; 6HR MAX TEMP:  51; 6HR PCP:  0.06;

Baltimore      LGT RAIN  49  48  97 NE7       30.13F FOG
6HR MIN TEMP:  44; 6HR MAX TEMP:  49; 6HR PCP:  0.01;

Philadelphia   CLOUDY    48  45  89 CALM      30.16F FOG
6HR MIN TEMP:  44; 6HR MAX TEMP:  48; 6HR PCP: TRACE;

Newark         LGT RAIN  54  42  64 N8        30.14F
6HR MIN TEMP:  43; 6HR MAX TEMP:  56; 6HR PCP: TRACE;

Laguardia      CLOUDY    53  39  59 NW6       30.15F
6HR MIN TEMP:  47; 6HR MAX TEMP:  54;

J F K          CLOUDY    49  45  86 SW9       30.16F
6HR MIN TEMP:  44; 6HR MAX TEMP:  54; 6HR PCP: TRACE;

Boston         PTSUNNY   53  35  50 NW12      30.09S
6HR MIN TEMP:  44; 6HR MAX TEMP:  55;

Pittsburg      LGT RAIN  46  45  96 E6        30.13S FOG
6HR MIN TEMP:  46; 6HR MAX TEMP:  47; 6HR PCP:  0.17;

Akron          RAIN      42  38  85 NE7       30.14F FOG
6HR MIN TEMP:  42; 6HR MAX TEMP:  43; 6HR PCP:  0.52;

Cleveland      LGT RAIN  41  38  89 E7        30.17F
6HR MIN TEMP:  37; 6HR MAX TEMP:  41; 6HR PCP:  0.18;

Cincinnati     CLOUDY    51  49  92 NE9       30.03F
6HR MIN TEMP:  48; 6HR MAX TEMP:  51; 6HR PCP:  0.14;

Columbus       RAIN      47  47 100 NE9       30.08F
Detroit        CLOUDY    39  31  72 E12       30.19F WCI  32
6HR MIN TEMP:  38; 6HR MAX TEMP:  40;

Chicago O`Hare CLOUDY    39  31  72 E14       30.03F WCI  31
6HR MIN TEMP:  34; 6HR MAX TEMP:  39;

Minneapolis    CLOUDY    26  20  77 E8        30.00F WCI  18
6HR MIN TEMP:   8; 6HR MAX TEMP:  26;

Indianapolis   CLOUDY    47  46  97 E14       29.99F
6HR MIN TEMP:  42; 6HR MAX TEMP:  48; 6HR PCP:  0.72;

Toronto Canada PTSUNNY   37  25  60 N6        30.21F WCI  33

$$




USA.gov is the U.S. government's official web portal to all federal, state and local government web resources and services.